FW0371 Weather Reports


time (UTC)temp
C
wind
direction
speed
KPH
gust
KPH
rain 1hr
cm
rain 24hr
cm
rain mn
cm
humidity
%
barometer
mb
20260506020024 23 38 1.6 6.4 0.00 0.00 0.00 33 1008.3
20260506014503 22 350 1.6 4.8 0.00 0.00 0.00 42 1008.3
20260506013003 23 316 3.2 9.7 0.00 0.00 0.00 40 1008.2
20260506011503 23 54 4.8 14.5 0.00 0.00 0.00 24 1008.0
20260506010004 24 77 14.5 37.0 0.00 0.00 0.00 23 1008.0
20260506004503 24 65 6.4 14.5 0.00 0.00 0.00 24 1008.0
20260506003003 25 51 4.8 12.9 0.00 0.00 0.00 23 1007.8
20260506001503 26 69 8.0 14.5 0.00 0.00 0.00 23 1007.8
20260506000004 26 32 6.4 19.3 0.00 0.00 0.00 22 1007.7
20260505234503 26 306 6.4 14.5 0.00 0.00 0.00 23 1007.8
20260505233003 25 237 4.8 11.3 0.00 0.00 0.00 24 1007.8
20260505231503 26 160 8.0 14.5 0.00 0.00 0.00 23 1007.9
20260505230003 26 139 6.4 14.5 0.00 0.00 0.00 24 1008.0
20260505224503 25 154 4.8 11.3 0.00 0.00 0.00 25 1008.3
20260505223003 26 74 6.4 25.7 0.00 0.00 0.00 24 1008.5
20260505221503 26 57 9.7 20.9 0.00 0.00 0.00 24 1008.7
20260505220003 26 28 6.4 20.9 0.00 0.00 0.00 25 1008.8
20260505214503 27 34 6.4 14.5 0.00 0.00 0.00 24 1008.9
20260505213024 26 72 8.0 20.9 0.00 0.00 0.00 24 1009.1
20260505211503 26 98 8.0 17.7 0.00 0.00 0.00 24 1009.1
20260505210004 25 87 4.8 16.1 0.00 0.00 0.00 27 1009.2
20260505204503 24 169 4.8 14.5 0.00 0.00 0.00 27 1009.4
20260505203003 24 77 6.4 19.3 0.00 0.00 0.00 27 1009.5
20260505201503 23 88 4.8 11.3 0.00 0.00 0.00 28 1009.7
20260505200004 25 82 8.0 16.1 0.00 0.00 0.00 26 1009.7
20260505194503 25 72 6.4 20.9 0.00 0.00 0.00 27 1009.8
20260505193003 25 67 4.8 11.3 0.00 0.00 0.00 26 1009.9
20260505191503 24 89 6.4 16.1 0.00 0.00 0.00 27 1010.0
20260505190004 24 59 6.4 14.5 0.00 0.00 0.00 28 1010.2
20260505184503 23 23 4.8 17.7 0.00 0.00 0.00 30 1010.2
20260505183003 21 189 3.2 8.0 0.00 0.00 0.00 36 1010.3
20260505181524 20 214 4.8 9.7 0.00 0.00 0.00 39 1010.4
20260505180003 20 288 6.4 12.9 0.00 0.00 0.00 43 1010.4
20260505174504 18 222 8.0 14.5 0.00 0.00 0.00 47 1010.4
20260505173003 17 188 8.0 14.5 0.00 0.00 0.00 51 1010.4
20260505171503 17 199 8.0 14.5 0.00 0.00 0.00 54 1010.5
20260505170024 16 211 8.0 14.5 0.00 0.00 0.00 58 1010.4
20260505164503 15 210 8.0 14.5 0.00 0.00 0.00 60 1010.4
20260505163003 15 218 6.4 11.3 0.00 0.00 0.00 62 1010.5
20260505161503 14 198 6.4 12.9 0.00 0.00 0.00 64 1010.4
20260505153003 12 218 6.4 12.9 0.00 0.00 0.00 69 1010.3
20260505151524 12 235 4.8 11.3 0.00 0.00 0.00 71 1010.2
20260505124503 8 211 4.8 8.0 0.00 0.00 0.00 77 1008.8
20260505123024 8 235 3.2 6.4 0.00 0.00 0.00 79 1008.7
20260505121503 8 245 4.8 8.0 0.00 0.00 0.00 78 1008.7
20260505120003 8 244 3.2 11.3 0.00 0.00 0.00 78 1008.7
20260505114503 8 263 6.4 12.9 0.00 0.00 0.00 78 1008.7
20260505113024 8 260 6.4 12.9 0.00 0.00 0.00 77 1008.8
20260505111503 9 255 6.4 12.9 0.00 0.00 0.00 77 1008.8
20260505070003 12 221 8.0 16.1 0.00 0.00 0.00 67 1008.6
20260505064503 12 243 8.0 17.7 0.00 0.00 0.00 66 1008.5
20260505063003 12 285 12.9 22.5 0.00 0.00 0.00 66 1008.2
20260505061524 12 255 9.7 19.3 0.00 0.00 0.00 65 1008.0
20260505060003 13 249 6.4 14.5 0.00 0.00 0.00 64 1008.0
20260505054504 13 249 4.8 11.3 0.00 0.00 0.00 65 1008.0
20260505053003 13 234 6.4 11.3 0.00 0.00 0.00 64 1008.0
20260505051503 13 205 6.4 16.1 0.00 0.00 0.00 63 1008.0
20260505041503 14 187 16.1 27.4 0.00 0.00 0.00 63 1007.8
20260505040004 14 177 14.5 24.1 0.00 0.00 0.00 62 1007.4
20260505034503 15 178 12.9 25.7 0.00 0.00 0.00 61 1007.6
20260505033003 15 175 14.5 27.4 0.00 0.00 0.00 60 1007.1
20260505031503 15 177 14.5 30.6 0.00 0.00 0.00 59 1006.9
20260505030004 15 185 16.1 32.2 0.00 0.00 0.00 58 1006.3
20260505024524 16 175 20.9 40.2 0.00 0.00 0.00 55 1005.8
20260505023003 16 161 20.9 35.4 0.00 0.00 0.00 52 1005.3
20260505021524 16 160 24.1 37.0 0.00 0.00 0.00 53 1005.8